"Pseudo-MPEC" for P10OArP

Created 2019 Jun 15 19:07:54 UT using Find_Orb

Click here for an explanation of pseudo-MPECs

 
 Astrometry: 
     P10OArP  C2019 05 02!a=t2oBRt2Yi`lSt0mi?.,5.ZF6Hml/efvZ^rf2+EUEk.?U.ud:dF51
     P10OArP  C2019 05 02s2Ds#lgoVR5,fs$R,/QaUBJNQL]LjQ7=d[7A(XAstrometry68dKF51
     P10OArP  C2019 05 02D*xH\^X3Fg/J;`PR3@*$^H_OiA-YYK*#U\L7A^$AKgk@'AMn;WryF51
     P10OArP  C2019 06 02Y2(S5[3:?6o!`B=%+.F3)s[E*Txcf'?sp,1swN9AK:_h?Ew?XlmKF51
     P10OArP  C2019 06 02vGJ9g+Xa!2m2_Dm4^4_RMMqr$k*+]x0Zy4Mg?,(urO-XtTFXB+0pF51
     P10OArP  C2019 06 022[h7Lsv0q,DJuq7:W?5*owCQbUtG?DY2J'_Fk0S5[(`LBrl2;c8nF51
     P10OArP  C2019 06 02ZmB'2f:fSem818I'*FhVC`/qLZ/@nV=uh)i/6.VOtox8v\986XoyF51
     P10OArP  C2019 06 03.22364 15 44 48.46 -25 02 47.8    ~635q 21.4 GVNEOCPI52
     P10OArP  C2019 06 03.23001 15 44 48.45 -25 02 43.0    ~635q 21.6 GVNEOCPI52
     P10OArP  C2019 06 03.23526 15 44 48.46 -25 02 38.7    ~635q 21.7 GVNEOCPI52
     P10OArP  C2019 06 04.18915 15 44 51.88 -24 49 28.5    ~6457 21.1 GVNEOCPI52
     P10OArP  C2019 06 04.19305 15 44 51.86 -24 49 25.0    ~6457 20.9 GVNEOCPI52
     P10OArP  C2019 06 04.19695 15 44 51.90 -24 49 21.5    ~6457 21.3 GVNEOCPI52
     P10OArP  C2019 06 04.20214 15 44 51.91 -24 49 18.2    ~6457 21.3 GVNEOCPI52
     P10OArP  C2019 06 08tfK.PE`bQ)FA86redacted;OneI==ny/2lykax?'#N1HPre\!eW9F51
     P10OArP  C2019 06 08!`agd%*s^i_Ph*7@JrCx*E(V0WOuJQ\erFDVq:oWD7a51e.T=lSHF51
     P10OArP  C2019 06 08Ym:)xPnJv9[VdO%At]/'=[@/h@1,8jT,MR\vW2i8hSgmu;c2Kj4BF51
     P10OArP  C2019 06 08%.,n(=TAb.'5;1rPdsTQ@)G^;rN)n.8V@0;?Co4a',k[p5!_rHCgF51
     P10OArP HC2019 06 09tKqi3cii)aTEAMB7a)mNy=mi,;A));.T^B=Nei?clicky1FAH-$@691
     P10OArP HC2019 06 09T-sqj,Xei;wI??fm_@6XtG%oI2tCg'q8[g(Ayherem0:Nacm[):@691
     P10OArP HC2019 06 09J*xDRW9UjgS1HJI]7,XkSh+[PI(1RB+V']TY;Hforh_iAJlEMO7Y691
     P10OArP  C2019 06 10.(gPgHZ6QECMPST4.g)0VhyQlkQ?uBy]Jf3k4n(?9%mDXG2f5;vEF51
     P10OArP  C2019 06 10]PvOu'npIGSMgA?ViGu(Lh*j8K%-!$j+Ts'\BQ+i_YWx3oybQ%QXF51
     P10OArP  C2019 06 10cuJhXD$OXv0nrba!3r[e_*H[wSm`Nr)(*M`,r\3gTOApPTh1s(okF51
     P10OArP KC2019 06 11*Ph7xNeJ1GT^a`aYwNF+#g!-uDrHg90q'GI0fsu3MZthu-?ITJuL291
     P10OArP KC2019 06 113KJ+MPexplanationrA`iHa92Mf.::Bh\=u!f)KlYQ%^Ud1_\RE%291

Station data:
(291) LPL/Spacewatch II  (N31.961669 W111.599905)  US/Arizona.  Observers J.
   V. Scotti, R. S. McMillan. 1.8-m f/2.7 reflector + CCD.
(691) Steward Observatory, Kitt Peak - Spacewatch  (N31.962174 W111.600327)
   US/Arizona.  Observer J. V. Scotti. 0.9-m f/3 reflector + CCD.
(F51) Pan-STARRS 1, Haleakala  (N20.707235 W156.255910)  US/Hawaii.
   Observers N. Primak, A. Schultz, S. Watters, J. Thiel, T. Goggia. Measurer
   PS1 Science Consortium. 1.8-m Ritchey-Chrétien + CCD.
(I52) Steward Observatory, Mt. Lemmon Station  (N32.442547 W110.788920)
   US/Arizona.  Observers T. A. Pruyne, B. M. Africano, E. J. Christensen, G.
   A. Farneth, D. C. Fuls, A. R. Gibbs, A. D. Grauer, H. Groeller, J. A.
   Johnson, R. A. Kowalski, S. M. Larson, G. J. Leonard, R. L. Seaman, F. C.
   Shelly. 1.0-m reflector + CCD.

Orbital elements:  P10OArP
   Perihelion 2019 Apr 22.406584 +/- 0.0119 TT =  9:45:28 (JD 2458595.906584)
Epoch 2019 Jun 11.0 TT = JDT 2458645.5   Earth MOID: 0.5175   Ma: 0.0597
M  11.49675183 +/- 0.009            (J2000 ecliptic)          AutoNEOCP
n   0.23182012 +/- 0.000166         Peri.  319.72823 +/- 0.012
a   2.62443181 +/- 0.00125          Node   262.06865 +/- 0.0038
e   0.4219950 +/- 0.000185          Incl.    7.28847 +/- 0.0032
P   4.25                   H 20.9   G  0.15   U  6.9  
q 1.51693457 +/- 0.000239    Q 3.73192906 +/- 0.00227
From 26 observations 2019 May 2-June 11; mean residual 0".29
Residuals in arcseconds: 
190502 F51  .22-  .02+    190603 I52  .26+  .39-    190609 691  .20-  .24-    
190502 F51  .18-  .16+    190604 I52  .26-  .27-    190609 691  .27+  .16+    
190502 F51  .40+  .20-    190604 I52  .46-  .08+    190609 691  .08-  .15+    
190602 F51  .06+  .38+    190604 I52  .17+  .42+    190610 F51  .22-  .37-    
190602 F51  .07+  .20+    190604 I52  .42+  .49-    190610 F51  .21-  .32-    
190602 F51  .03+  .22+    190608 F51  .06-  .25-    190610 F51  .33-  .40-    
190602 F51  .15+  .29+    190608 F51  .09-  .11-    190611 291  .03+  .20+    
190603 I52  .25-  .07+    190608 F51  .05-  .16-    190611 291  .70+  .89+    
190603 I52  .11-  .37-    190608 F51  .09-  .18-    

Ephemerides (geocentric):
Date (UTC) HH   RA              Dec         delta   r     elong  mag " sig PA
---- -- -- --  -------------   -----------  ------ ------ -----  --- ---- ---
2019 06 15 19  15 47 20.126   -22 22 21.18  .61312 1.5936 155.3 21.7 .448 102
2019 06 15 20  15 47 21.056   -22 21 52.84  .61334 1.5937 155.3 21.7 .451 102
2019 06 15 21  15 47 21.988   -22 21 24.52  .61356 1.5939 155.3 21.7 .455 102
2019 06 15 22  15 47 22.923   -22 20 56.24  .61379 1.5940 155.2 21.7 .458 102
2019 06 15 23  15 47 23.861   -22 20 27.98  .61401 1.5941 155.2 21.7 .461 102
2019 06 16 00  15 47 24.802   -22 19 59.74  .61423 1.5942 155.2 21.7 .465 102
2019 06 16 01  15 47 25.746   -22 19 31.54  .61446 1.5943 155.1 21.7 .468 102
2019 06 16 02  15 47 26.692   -22 19 03.36  .61468 1.5944 155.1 21.7 .471 102
2019 06 16 03  15 47 27.642   -22 18 35.21  .61490 1.5945 155.0 21.7 .475 102
2019 06 16 04  15 47 28.594   -22 18 07.08  .61513 1.5946 155.0 21.7 .478 102
2019 06 16 05  15 47 29.550   -22 17 38.99  .61535 1.5948 155.0 21.7 .481 102
2019 06 16 06  15 47 30.508   -22 17 10.92  .61558 1.5949 154.9 21.7 .485 102
2019 06 16 07  15 47 31.470   -22 16 42.87  .61580 1.5950 154.9 21.7 .488 102
2019 06 16 08  15 47 32.434   -22 16 14.86  .61603 1.5951 154.9 21.7 .491 102
2019 06 16 09  15 47 33.401   -22 15 46.87  .61626 1.5952 154.8 21.7 .495 102
2019 06 16 10  15 47 34.371   -22 15 18.91  .61648 1.5953 154.8 21.7 .498 103
2019 06 16 11  15 47 35.344   -22 14 50.98  .61671 1.5954 154.7 21.7 .502 103
2019 06 16 12  15 47 36.320   -22 14 23.07  .61693 1.5956 154.7 21.7 .505 103
2019 06 16 13  15 47 37.299   -22 13 55.19  .61716 1.5957 154.7 21.7 .508 103
2019 06 16 14  15 47 38.281   -22 13 27.34  .61739 1.5958 154.6 21.7 .512 103
2019 06 16 15  15 47 39.265   -22 12 59.51  .61762 1.5959 154.6 21.7 .515 103
2019 06 16 16  15 47 40.253   -22 12 31.72  .61784 1.5960 154.6 21.7 .519 103
2019 06 16 17  15 47 41.243   -22 12 03.95  .61807 1.5961 154.5 21.7 .522 103
2019 06 16 18  15 47 42.237   -22 11 36.21  .61830 1.5962 154.5 21.7 .526 103
2019 06 16 19  15 47 43.233   -22 11 08.49  .61853 1.5963 154.5 21.7 .529 103
2019 06 16 20  15 47 44.232   -22 10 40.80  .61876 1.5965 154.4 21.7 .533 103
2019 06 16 21  15 47 45.235   -22 10 13.15  .61899 1.5966 154.4 21.7 .536 103
2019 06 16 22  15 47 46.240   -22 09 45.51  .61921 1.5967 154.3 21.7 .540 103
2019 06 16 23  15 47 47.248   -22 09 17.91  .61944 1.5968 154.3 21.7 .543 103
2019 06 17 00  15 47 48.259   -22 08 50.33  .61967 1.5969 154.3 21.7 .547 103
2019 06 17 01  15 47 49.273   -22 08 22.78  .61990 1.5970 154.2 21.7 .550 103
2019 06 17 02  15 47 50.289   -22 07 55.26  .62013 1.5971 154.2 21.7 .554 103
2019 06 17 03  15 47 51.309   -22 07 27.77  .62036 1.5973 154.2 21.7 .558 103
2019 06 17 04  15 47 52.332   -22 07 00.30  .62060 1.5974 154.1 21.7 .561 103
2019 06 17 05  15 47 53.357   -22 06 32.86  .62083 1.5975 154.1 21.7 .565 103
2019 06 17 06  15 47 54.386   -22 06 05.45  .62106 1.5976 154.0 21.7 .568 103
2019 06 17 07  15 47 55.417   -22 05 38.07  .62129 1.5977 154.0 21.7 .572 103
2019 06 17 08  15 47 56.451   -22 05 10.71  .62152 1.5978 154.0 21.7 .576 104
2019 06 17 09  15 47 57.489   -22 04 43.39  .62175 1.5980 153.9 21.7 .579 104
2019 06 17 10  15 47 58.529   -22 04 16.09  .62199 1.5981 153.9 21.7 .583 104
2019 06 17 11  15 47 59.572   -22 03 48.81  .62222 1.5982 153.9 21.8 .586 104
2019 06 17 12  15 48 00.618   -22 03 21.57  .62245 1.5983 153.8 21.8 .590 104
2019 06 17 13  15 48 01.667   -22 02 54.35  .62268 1.5984 153.8 21.8 .594 104
2019 06 17 14  15 48 02.718   -22 02 27.17  .62292 1.5985 153.8 21.8 .597 104
2019 06 17 15  15 48 03.773   -22 02 00.00  .62315 1.5986 153.7 21.8 .601 104
2019 06 17 16  15 48 04.831   -22 01 32.87  .62339 1.5988 153.7 21.8 .605 104
2019 06 17 17  15 48 05.891   -22 01 05.77  .62362 1.5989 153.6 21.8 .608 104
2019 06 17 18  15 48 06.955   -22 00 38.69  .62386 1.5990 153.6 21.8 .612 104